Regional Weather Roundup
Issued by NWS Binghamton, NY

Home | Current Version | Previous Version | Text Only | Print | Product List | Glossary On
Versions: 1 2 3 4 5 6 7 8 9 10 11 12 13 14 15 16 17 18 19 20 21 22 23 24 25 26 27 28 29 30 31 32 33 34 35 36 37 38 39 40 41 42 43 44 45 46 47 48 49 50
000
ASUS41 KBGM 261410
RWRBGM
RWRBGM
BINGHAMTON REGIONAL WEATHER ROUNDUP
NATIONAL WEATHER SERVICE BINGHAMTON NY
900 AM EST MON JAN 26 2015

Note: "fair" indicates few or no clouds below 12,000 feet with no
significant weather and/or obstructions to visibility.

* = Station(s) that does not report precipitation, such as rain,
snow, etc, also no thunder or fog.

!NYZ009-015>018-022>025-036-037-044>046-055>057-062-261500
...CENTRAL NEW YORK...

CITY           SKY/WX    TMP DP  RH WIND       PRES   REMARKS
BINGHAMTON     LGT SNOW   7   4  87 E10       29.86S VSB 1   WCI  -8
CORTLAND       LGT SNOW  12   7  79 NE5       29.94S WCI   4
DANSVILLE      LGT SNOW  13   8  81 CALM      29.95F VSB 3/4
ELMIRA         LGT SNOW  14   8  77 E9        29.92S WCI   2
ITHACA         LGT SNOW  10   3  72 E3        29.93F
HAMILTON       CLOUDY    10   1  67 CALM      29.96
MONTICELLO     CLOUDY    12   3  67 E15G23    29.92R WCI  -4
NORWICH        CLOUDY     9   1  72 CALM      29.97S
ONEONTA        LGT SNOW   9   0  66 E7        29.89S WCI  -3
PENN YAN       LGT SNOW  11   6  81 NE7       29.94S VSB 1   WCI   0
ROME           CLOUDY     8  -3  61 E7        30.07R WCI  -3
SIDNEY         LGT SNOW  10   7  85 E3        29.95F
SYRACUSE       CLOUDY     8   0  69 NE6       30.02S WCI  -2
$$

!PAZ038>040-043-044-047-048-072-261500
...NORTHEAST PENNSYLVANIA...

CITY           SKY/WX    TMP DP  RH WIND       PRES   REMARKS
HAZLETON       CLOUDY    19  12  73 E12G18    29.84S WCI   7
SCRANTON       LGT SNOW  19  10  68 NE9       29.89R WCI   8
TOWANDA*       CLOUDY    14  10  85 NE5       29.93S WCI   6
$$
&&
KEY
WCI = WIND CHILL INDEX
VSB = VISIBILITY
HX  = HEAT INDEX
$$


USA.gov is the U.S. government's official web portal to all federal, state and local government web resources and services.